Time,TemperatureF,DewpointF,PressureIn,WindDirection,WindDirectionDegrees,WindSpeedMPH,WindSpeedGustMPH,Humidity,HourlyPrecipIn,Conditions,Clouds,dailyrainin,SoftwareType,DateUTC
2013-05-19 00:02:00,48.8,44.5,29.78,ESE,117,0.0,0.0,85,0.00,CLR,,0.00,WeatherDisplay:10.37,2013-05-18 23:02:00,
2013-05-19 00:07:00,48.5,44.2,29.78,ESE,117,0.0,0.0,85,0.00,CLR,,0.00,WeatherDisplay:10.37,2013-05-18 23:07:00,
2013-05-19 00:12:00,48.2,44.2,29.78,ESE,117,0.0,0.0,86,0.00,CLR,,0.00,WeatherDisplay:10.37,2013-05-18 23:12:00,
2013-05-19 00:17:00,48.2,44.5,29.78,ESE,117,0.0,0.0,87,0.00,CLR,,0.00,WeatherDisplay:10.37,2013-05-18 23:17:00,
2013-05-19 00:22:00,48.0,44.6,29.78,ESE,117,0.0,0.0,88,0.00,CLR,,0.00,WeatherDisplay:10.37,2013-05-18 23:22:00,
2013-05-19 00:27:00,47.9,44.5,29.78,ESE,117,0.0,0.0,88,0.00,CLR,,0.00,WeatherDisplay:10.37,2013-05-18 23:27:00,
2013-05-19 00:32:00,47.8,44.4,29.78,ESE,117,0.0,0.0,88,0.00,CLR,,0.00,WeatherDisplay:10.37,2013-05-18 23:32:00,
2013-05-19 00:37:00,47.6,44.2,29.78,ESE,117,0.0,0.0,88,0.00,CLR,,0.00,WeatherDisplay:10.37,2013-05-18 23:37:00,
2013-05-19 00:42:00,47.5,44.1,29.77,ESE,117,0.0,0.0,88,0.00,CLR,,0.00,WeatherDisplay:10.37,2013-05-18 23:42:00,
2013-05-19 00:47:00,47.3,43.9,29.77,ESE,117,0.0,0.0,88,0.00,CLR,,0.00,WeatherDisplay:10.37,2013-05-18 23:47:00,
2013-05-19 00:52:00,47.0,43.9,29.77,ESE,117,0.0,0.0,89,0.00,CLR,,0.00,WeatherDisplay:10.37,2013-05-18 23:52:00,
2013-05-19 00:57:00,46.8,43.7,29.77,ESE,117,0.0,0.0,89,0.00,CLR,,0.00,WeatherDisplay:10.37,2013-05-18 23:57:00,
2013-05-19 01:02:00,46.7,43.6,29.77,ESE,117,0.0,0.0,89,0.00,CLR,,0.00,WeatherDisplay:10.37,2013-05-19 00:02:00,
2013-05-19 01:07:00,46.5,43.7,29.77,ESE,117,0.0,0.0,90,0.00,CLR,,0.00,WeatherDisplay:10.37,2013-05-19 00:07:00,
2013-05-19 01:12:00,46.4,43.6,29.78,ESE,117,0.0,0.0,90,0.00,CLR,,0.00,WeatherDisplay:10.37,2013-05-19 00:12:00,
2013-05-19 01:17:00,46.3,43.8,29.78,ESE,117,0.0,0.0,91,0.00,CLR,,0.00,WeatherDisplay:10.37,2013-05-19 00:17:00,
2013-05-19 01:22:00,46.1,43.6,29.79,ESE,117,0.0,0.0,91,0.00,CLR,,0.00,WeatherDisplay:10.37,2013-05-19 00:22:00,
2013-05-19 01:27:00,45.9,43.4,29.79,ESE,117,0.0,0.0,91,0.00,CLR,,0.00,WeatherDisplay:10.37,2013-05-19 00:27:00,
2013-05-19 01:32:00,45.7,43.2,29.79,ESE,117,0.0,0.0,91,0.00,CLR,,0.00,WeatherDisplay:10.37,2013-05-19 00:32:00,
2013-05-19 01:37:00,45.7,43.5,29.79,ESE,117,0.0,0.0,92,0.00,CLR,,0.00,WeatherDisplay:10.37,2013-05-19 00:37:00,
2013-05-19 01:42:00,45.8,43.6,29.79,ESE,117,0.0,0.0,92,0.00,CLR,,0.00,WeatherDisplay:10.37,2013-05-19 00:42:00,
2013-05-19 01:47:00,45.9,43.7,29.79,ESE,117,0.0,0.0,92,0.00,CLR,,0.00,WeatherDisplay:10.37,2013-05-19 00:47:00,
2013-05-19 01:52:00,46.1,44.2,29.78,ESE,117,0.0,0.0,93,0.00,CLR,,0.00,WeatherDisplay:10.37,2013-05-19 00:52:00,
2013-05-19 01:57:00,46.4,44.5,29.78,ESE,117,0.0,0.0,93,0.00,CLR,,0.00,WeatherDisplay:10.37,2013-05-19 00:57:00,
2013-05-19 02:02:00,46.6,44.7,29.78,ESE,117,0.0,0.0,93,0.00,CLR,,0.00,WeatherDisplay:10.37,2013-05-19 01:02:00,
2013-05-19 02:07:00,46.7,44.8,29.78,ESE,117,0.0,0.0,93,0.00,CLR,,0.00,WeatherDisplay:10.37,2013-05-19 01:07:00,
2013-05-19 02:12:00,46.6,44.7,29.79,ESE,117,0.0,0.0,93,0.00,CLR,,0.00,WeatherDisplay:10.37,2013-05-19 01:12:00,
2013-05-19 02:17:00,46.5,44.6,29.78,ESE,117,0.0,0.0,93,0.00,CLR,,0.00,WeatherDisplay:10.37,2013-05-19 01:17:00,
2013-05-19 02:22:00,46.4,44.5,29.79,ESE,117,0.0,0.0,93,0.00,CLR,,0.00,WeatherDisplay:10.37,2013-05-19 01:22:00,
2013-05-19 02:27:00,46.4,44.5,29.79,ESE,117,0.0,0.0,93,0.00,CLR,,0.00,WeatherDisplay:10.37,2013-05-19 01:27:00,
2013-05-19 02:32:00,46.5,44.6,29.79,ESE,117,0.0,0.0,93,0.00,CLR,,0.00,WeatherDisplay:10.37,2013-05-19 01:32:00,
2013-05-19 02:37:00,46.5,44.6,29.79,ESE,117,0.0,0.0,93,0.00,CLR,,0.00,WeatherDisplay:10.37,2013-05-19 01:37:00,
2013-05-19 02:42:00,46.4,44.5,29.79,ESE,117,0.0,0.0,93,0.00,CLR,,0.00,WeatherDisplay:10.37,2013-05-19 01:42:00,
2013-05-19 02:47:00,46.3,44.4,29.79,ESE,117,0.0,0.0,93,0.00,CLR,,0.00,WeatherDisplay:10.37,2013-05-19 01:47:00,
2013-05-19 02:52:00,46.1,44.2,29.79,ESE,117,0.0,0.0,93,0.00,CLR,,0.00,WeatherDisplay:10.37,2013-05-19 01:52:00,
2013-05-19 02:57:00,45.9,44.0,29.80,ESE,117,0.0,0.0,93,0.00,CLR,,0.00,WeatherDisplay:10.37,2013-05-19 01:57:00,
2013-05-19 03:02:00,45.5,43.6,29.79,ESE,117,0.0,0.0,93,0.00,CLR,,0.00,WeatherDisplay:10.37,2013-05-19 02:02:00,
2013-05-19 03:07:00,45.2,43.3,29.79,ESE,117,0.0,0.0,93,0.00,CLR,,0.00,WeatherDisplay:10.37,2013-05-19 02:07:00,
2013-05-19 03:12:00,45.1,43.2,29.79,ESE,117,0.0,0.0,93,0.00,CLR,,0.00,WeatherDisplay:10.37,2013-05-19 02:12:00,
2013-05-19 03:17:00,44.9,43.0,29.79,ESE,117,0.0,0.0,93,0.00,CLR,,0.00,WeatherDisplay:10.37,2013-05-19 02:17:00,
2013-05-19 03:22:00,44.7,42.8,29.79,ESE,117,0.0,0.0,93,0.00,CLR,,0.00,WeatherDisplay:10.37,2013-05-19 02:22:00,
2013-05-19 03:27:00,44.6,42.7,29.79,ESE,117,0.0,0.0,93,0.00,CLR,,0.00,WeatherDisplay:10.37,2013-05-19 02:27:00,
2013-05-19 03:32:00,44.3,42.4,29.79,ESE,117,0.0,0.0,93,0.00,CLR,,0.00,WeatherDisplay:10.37,2013-05-19 02:32:00,
2013-05-19 03:37:00,44.1,42.5,29.79,ESE,117,0.0,0.0,94,0.00,CLR,,0.00,WeatherDisplay:10.37,2013-05-19 02:37:00,
2013-05-19 03:42:00,44.0,42.4,29.80,ESE,117,0.0,0.0,94,0.00,CLR,,0.00,WeatherDisplay:10.37,2013-05-19 02:42:00,
2013-05-19 03:47:00,43.9,42.3,29.80,ESE,117,0.0,0.0,94,0.00,CLR,,0.00,WeatherDisplay:10.37,2013-05-19 02:47:00,
2013-05-19 03:52:00,43.9,42.3,29.80,ESE,117,0.0,0.0,94,0.00,CLR,,0.00,WeatherDisplay:10.37,2013-05-19 02:52:00,
2013-05-19 03:57:00,43.9,42.3,29.80,ESE,117,0.0,0.0,94,0.00,CLR,,0.00,WeatherDisplay:10.37,2013-05-19 02:57:00,
2013-05-19 04:02:00,44.1,42.8,29.80,ESE,117,0.0,0.0,95,0.00,CLR,,0.00,WeatherDisplay:10.37,2013-05-19 03:02:00,
2013-05-19 04:07:00,44.5,43.2,29.80,ESE,117,0.0,0.0,95,0.00,CLR,,0.00,WeatherDisplay:10.37,2013-05-19 03:07:00,
2013-05-19 04:12:00,44.6,43.3,29.81,ESE,117,0.0,0.0,95,0.00,CLR,,0.00,WeatherDisplay:10.37,2013-05-19 03:12:00,
2013-05-19 04:17:00,44.7,43.4,29.81,ESE,117,0.0,0.0,95,0.00,CLR,,0.00,WeatherDisplay:10.37,2013-05-19 03:17:00,
2013-05-19 04:22:00,44.8,43.5,29.81,ESE,117,0.0,0.0,95,0.00,CLR,,0.00,WeatherDisplay:10.37,2013-05-19 03:22:00,
2013-05-19 04:27:00,44.9,43.6,29.81,ESE,117,0.0,0.0,95,0.00,CLR,,0.00,WeatherDisplay:10.37,2013-05-19 03:27:00,
2013-05-19 04:32:00,44.9,43.6,29.81,ESE,117,0.0,0.0,95,0.00,CLR,,0.00,WeatherDisplay:10.37,2013-05-19 03:32:00,
2013-05-19 04:37:00,44.9,43.6,29.81,ESE,117,0.0,0.0,95,0.00,CLR,,0.00,WeatherDisplay:10.37,2013-05-19 03:37:00,
2013-05-19 04:42:00,44.9,43.6,29.81,ESE,117,0.0,0.0,95,0.00,CLR,,0.00,WeatherDisplay:10.37,2013-05-19 03:42:00,
2013-05-19 04:47:00,44.7,43.4,29.82,ESE,117,0.0,0.0,95,0.00,CLR,,0.00,WeatherDisplay:10.37,2013-05-19 03:47:00,
2013-05-19 04:52:00,44.6,43.3,29.81,ESE,117,0.0,0.0,95,0.00,CLR,,0.00,WeatherDisplay:10.37,2013-05-19 03:52:00,
2013-05-19 04:57:00,44.6,43.3,29.81,ESE,117,0.0,0.0,95,0.00,CLR,,0.00,WeatherDisplay:10.37,2013-05-19 03:57:00,
2013-05-19 05:01:00,44.5,43.2,29.81,ESE,117,0.0,0.0,95,0.00,CLR,,0.00,WeatherDisplay:10.37,2013-05-19 04:01:00,
2013-05-19 05:06:00,44.4,43.1,29.81,ESE,117,0.0,0.0,95,0.00,CLR,,0.00,WeatherDisplay:10.37,2013-05-19 04:06:00,
2013-05-19 05:11:00,44.3,43.0,29.81,ESE,117,0.0,0.0,95,0.00,CLR,,0.00,WeatherDisplay:10.37,2013-05-19 04:11:00,
2013-05-19 05:16:00,44.1,42.8,29.81,ESE,117,0.0,0.0,95,0.00,CLR,,0.00,WeatherDisplay:10.37,2013-05-19 04:16:00,
2013-05-19 05:21:00,44.2,43.1,29.82,ESE,117,0.0,0.0,96,0.00,CLR,,0.00,WeatherDisplay:10.37,2013-05-19 04:21:00,
2013-05-19 05:26:00,44.3,43.2,29.82,ESE,117,0.0,0.0,96,0.00,CLR,,0.00,WeatherDisplay:10.37,2013-05-19 04:26:00,
2013-05-19 05:31:00,44.2,42.9,29.82,ESE,117,0.0,0.0,95,0.00,CLR,,0.00,WeatherDisplay:10.37,2013-05-19 04:31:00,
2013-05-19 05:36:00,44.1,42.8,29.82,ESE,117,0.0,0.0,95,0.00,CLR,,0.00,WeatherDisplay:10.37,2013-05-19 04:36:00,
2013-05-19 05:41:00,44.1,43.0,29.82,ESE,117,0.0,0.0,96,0.00,CLR,,0.00,WeatherDisplay:10.37,2013-05-19 04:41:00,
2013-05-19 05:46:00,44.2,43.1,29.81,ESE,117,0.0,0.0,96,0.00,CLR,,0.00,WeatherDisplay:10.37,2013-05-19 04:46:00,
2013-05-19 05:51:00,44.4,43.3,29.82,ESE,117,0.0,0.0,96,0.00,CLR,,0.00,WeatherDisplay:10.37,2013-05-19 04:51:00,
2013-05-19 05:56:00,44.5,43.4,29.82,ESE,117,0.0,0.0,96,0.00,CLR,,0.00,WeatherDisplay:10.37,2013-05-19 04:56:00,
2013-05-19 06:01:00,44.7,43.6,29.82,ESE,117,0.0,0.0,96,0.00,CLR,,0.00,WeatherDisplay:10.37,2013-05-19 05:01:00,
2013-05-19 06:06:00,44.8,43.7,29.82,ESE,115,0.0,0.0,96,0.00,CLR,,0.00,WeatherDisplay:10.37,2013-05-19 05:06:00,
2013-05-19 06:11:00,44.8,43.7,29.82,ESE,116,0.0,0.0,96,0.00,CLR,,0.00,WeatherDisplay:10.37,2013-05-19 05:11:00,
2013-05-19 06:16:00,45.0,43.9,29.83,ESE,116,0.0,0.0,96,0.00,CLR,,0.00,WeatherDisplay:10.37,2013-05-19 05:16:00,
2013-05-19 06:21:00,45.2,44.1,29.82,ESE,116,0.0,0.0,96,0.00,CLR,,0.00,WeatherDisplay:10.37,2013-05-19 05:21:00,
2013-05-19 06:26:00,45.5,44.7,29.83,ESE,116,0.0,0.0,97,0.00,CLR,,0.00,WeatherDisplay:10.37,2013-05-19 05:26:00,
2013-05-19 06:31:00,45.8,45.0,29.83,ESE,115,0.0,0.0,97,0.00,CLR,,0.00,WeatherDisplay:10.37,2013-05-19 05:31:00,
2013-05-19 06:36:00,46.2,45.4,29.83,ESE,115,0.0,0.0,97,0.00,CLR,,0.00,WeatherDisplay:10.37,2013-05-19 05:36:00,
2013-05-19 06:41:00,46.7,45.9,29.83,ESE,115,0.0,0.0,97,0.00,CLR,,0.00,WeatherDisplay:10.37,2013-05-19 05:41:00,
2013-05-19 06:46:00,47.2,46.4,29.83,ESE,115,0.0,0.0,97,0.00,CLR,,0.00,WeatherDisplay:10.37,2013-05-19 05:46:00,
2013-05-19 06:51:00,47.7,46.9,29.84,ESE,115,0.0,0.0,97,0.00,CLR,,0.00,WeatherDisplay:10.37,2013-05-19 05:51:00,
2013-05-19 06:56:00,48.1,47.3,29.84,ESE,115,0.0,0.0,97,0.00,CLR,,0.00,WeatherDisplay:10.37,2013-05-19 05:56:00,
2013-05-19 07:01:00,48.5,47.7,29.84,ESE,115,0.0,0.0,97,0.00,CLR,,0.00,WeatherDisplay:10.37,2013-05-19 06:01:00,
2013-05-19 07:06:00,48.9,48.1,29.84,ESE,108,0.0,0.0,97,0.00,CLR,,0.00,WeatherDisplay:10.37,2013-05-19 06:06:00,
2013-05-19 07:11:00,49.1,48.0,29.84,NNE,16,0.0,0.0,96,0.00,CLR,,0.00,WeatherDisplay:10.37,2013-05-19 06:11:00,
2013-05-19 07:16:00,49.0,47.6,29.84,North,6,0.0,0.0,95,0.00,CLR,,0.00,WeatherDisplay:10.37,2013-05-19 06:16:00,
2013-05-19 07:21:00,49.1,47.4,29.84,North,349,0.0,0.0,94,0.00,CLR,,0.00,WeatherDisplay:10.37,2013-05-19 06:21:00,
2013-05-19 07:26:00,49.3,47.4,29.84,NNE,23,0.0,0.0,93,0.00,CLR,,0.00,WeatherDisplay:10.37,2013-05-19 06:26:00,
2013-05-19 07:31:00,49.8,47.6,29.83,NE,37,0.0,0.0,92,0.00,CLR,,0.00,WeatherDisplay:10.37,2013-05-19 06:31:00,
2013-05-19 07:36:00,50.4,47.6,29.84,NE,42,0.0,0.0,90,0.00,CLR,,0.00,WeatherDisplay:10.37,2013-05-19 06:36:00,
2013-05-19 07:41:00,50.9,47.5,29.84,NE,53,1.1,1.1,88,0.00,CLR,,0.00,WeatherDisplay:10.37,2013-05-19 06:41:00,
2013-05-19 07:46:00,51.3,46.9,29.84,East,82,3.5,3.5,85,0.00,CLR,,0.00,WeatherDisplay:10.37,2013-05-19 06:46:00,
2013-05-19 07:51:00,51.5,47.1,29.85,NE,46,2.0,2.0,85,0.00,CLR,,0.00,WeatherDisplay:10.37,2013-05-19 06:51:00,
2013-05-19 07:56:00,51.5,47.1,29.85,NE,47,0.0,0.0,85,0.00,CLR,,0.00,WeatherDisplay:10.37,2013-05-19 06:56:00,
2013-05-19 08:01:00,51.7,47.0,29.85,NNE,18,0.0,0.0,84,0.00,CLR,,0.00,WeatherDisplay:10.37,2013-05-19 07:01:00,
2013-05-19 08:06:00,52.1,47.4,29.85,NNE,17,0.0,0.0,84,0.00,CLR,,0.00,WeatherDisplay:10.37,2013-05-19 07:06:00,
2013-05-19 08:11:00,52.4,47.4,29.85,North,4,0.0,0.0,83,0.00,CLR,,0.00,WeatherDisplay:10.37,2013-05-19 07:11:00,
2013-05-19 08:16:00,52.6,47.3,29.85,NNE,16,0.0,0.0,82,0.00,CLR,,0.00,WeatherDisplay:10.37,2013-05-19 07:16:00,
2013-05-19 08:21:00,52.8,47.1,29.85,NNE,20,0.0,0.0,81,0.00,CLR,,0.00,WeatherDisplay:10.37,2013-05-19 07:21:00,
2013-05-19 08:26:00,52.9,47.2,29.85,NNE,20,0.0,0.0,81,0.00,CLR,,0.00,WeatherDisplay:10.37,2013-05-19 07:26:00,
2013-05-19 08:31:00,53.0,47.3,29.85,NNE,15,0.0,0.0,81,0.00,CLR,,0.00,WeatherDisplay:10.37,2013-05-19 07:31:00,
2013-05-19 08:36:00,53.1,47.1,29.85,WNW,300,0.0,0.0,80,0.00,CLR,,0.00,WeatherDisplay:10.37,2013-05-19 07:36:00,
2013-05-19 08:41:00,53.3,47.6,29.86,NNE,29,0.0,0.0,81,0.00,CLR,,0.00,WeatherDisplay:10.37,2013-05-19 07:41:00,
2013-05-19 08:46:00,53.6,47.6,29.86,NE,41,0.0,0.0,80,0.00,CLR,,0.00,WeatherDisplay:10.37,2013-05-19 07:46:00,
2013-05-19 08:51:00,54.1,48.1,29.86,NW,312,1.1,1.1,80,0.00,CLR,,0.00,WeatherDisplay:10.37,2013-05-19 07:51:00,
2013-05-19 08:56:00,54.4,47.0,29.86,NW,311,2.3,2.3,76,0.00,CLR,,0.00,WeatherDisplay:10.37,2013-05-19 07:56:00,
2013-05-19 09:01:00,54.6,47.5,29.86,WNW,295,1.1,1.1,77,0.00,CLR,,0.00,WeatherDisplay:10.37,2013-05-19 08:01:00,
2013-05-19 09:06:00,55.1,47.7,29.86,NW,311,1.1,0.0,76,0.00,CLR,,0.00,WeatherDisplay:10.37,2013-05-19 08:06:00,
2013-05-19 09:11:00,55.4,47.6,29.86,NNE,30,3.5,3.5,75,0.00,CLR,,0.00,WeatherDisplay:10.37,2013-05-19 08:11:00,
2013-05-19 09:16:00,55.7,47.9,29.85,ENE,67,1.1,1.1,75,0.00,CLR,,0.00,WeatherDisplay:10.37,2013-05-19 08:16:00,
2013-05-19 09:21:00,55.8,47.3,29.85,NW,308,2.3,2.3,73,0.00,CLR,,0.00,WeatherDisplay:10.37,2013-05-19 08:21:00,
2013-05-19 09:26:00,56.2,48.0,29.85,North,9,2.3,2.3,74,0.00,CLR,,0.00,WeatherDisplay:10.37,2013-05-19 08:26:00,
2013-05-19 09:31:00,57.1,48.5,29.85,NW,309,2.3,2.3,73,0.00,CLR,,0.00,WeatherDisplay:10.37,2013-05-19 08:31:00,
2013-05-19 09:36:00,57.9,48.9,29.85,WNW,302,1.0,1.0,72,0.00,CLR,,0.00,WeatherDisplay:10.37,2013-05-19 08:36:00,
2013-05-19 09:41:00,58.3,48.2,29.86,NNE,23,1.1,1.1,69,0.00,CLR,,0.00,WeatherDisplay:10.37,2013-05-19 08:41:00,
2013-05-19 09:46:00,58.6,48.5,29.85,WNW,300,0.0,0.0,69,0.00,CLR,,0.00,WeatherDisplay:10.37,2013-05-19 08:46:00,
2013-05-19 09:51:00,58.7,47.8,29.86,NNE,25,3.5,3.5,67,0.00,CLR,,0.00,WeatherDisplay:10.37,2013-05-19 08:51:00,
2013-05-19 09:56:00,58.8,47.9,29.85,SSW,202,2.3,2.3,67,0.00,CLR,,0.00,WeatherDisplay:10.37,2013-05-19 08:56:00,
2013-05-19 10:01:00,58.6,47.3,29.86,NW,323,3.5,3.5,66,0.00,CLR,,0.00,WeatherDisplay:10.37,2013-05-19 09:01:00,
2013-05-19 10:06:00,58.4,47.5,29.86,NW,308,2.3,2.3,67,0.00,CLR,,0.00,WeatherDisplay:10.37,2013-05-19 09:06:00,
2013-05-19 10:11:00,58.4,47.5,29.86,NW,319,3.5,3.5,67,0.00,CLR,,0.00,WeatherDisplay:10.37,2013-05-19 09:11:00,
2013-05-19 10:16:00,58.6,47.7,29.86,NNE,23,2.3,2.3,67,0.00,CLR,,0.00,WeatherDisplay:10.37,2013-05-19 09:16:00,
2013-05-19 10:21:00,58.8,47.9,29.86,WNW,284,3.5,3.5,67,0.00,CLR,,0.00,WeatherDisplay:10.37,2013-05-19 09:21:00,
2013-05-19 10:26:00,58.6,47.3,29.87,West,274,0.0,0.0,66,0.00,CLR,,0.00,WeatherDisplay:10.37,2013-05-19 09:26:00,
2013-05-19 10:31:00,58.7,47.8,29.87,North,356,3.5,3.5,67,0.00,CLR,,0.00,WeatherDisplay:10.37,2013-05-19 09:31:00,
2013-05-19 10:36:00,58.7,47.8,29.87,NE,41,3.5,3.5,67,0.00,CLR,,0.00,WeatherDisplay:10.37,2013-05-19 09:36:00,
2013-05-19 10:41:00,58.7,47.4,29.87,NW,304,3.5,3.5,66,0.00,CLR,,0.00,WeatherDisplay:10.37,2013-05-19 09:41:00,
2013-05-19 10:46:00,59.1,48.9,29.88,ENE,75,2.3,2.3,69,0.00,CLR,,0.00,WeatherDisplay:10.37,2013-05-19 09:46:00,
2013-05-19 10:51:00,59.3,47.5,29.88,West,278,2.3,2.3,65,0.00,CLR,,0.00,WeatherDisplay:10.37,2013-05-19 09:51:00,
2013-05-19 10:56:00,59.0,48.1,29.88,NW,308,2.3,2.3,67,0.00,CLR,,0.00,WeatherDisplay:10.37,2013-05-19 09:56:00,
2013-05-19 11:01:00,58.9,48.0,29.88,NNE,13,1.0,1.0,67,0.00,CLR,,0.00,WeatherDisplay:10.37,2013-05-19 10:01:00,
2013-05-19 11:06:00,58.8,47.5,29.88,SE,142,3.5,3.5,66,0.00,CLR,,0.00,WeatherDisplay:10.37,2013-05-19 10:06:00,
2013-05-19 11:11:00,59.0,47.7,29.88,West,269,3.5,3.5,66,0.00,CLR,,0.00,WeatherDisplay:10.37,2013-05-19 10:11:00,
2013-05-19 11:16:00,59.7,48.3,29.88,SSE,162,4.6,4.6,66,0.00,CLR,,0.00,WeatherDisplay:10.37,2013-05-19 10:16:00,
2013-05-19 11:21:00,60.1,48.7,29.88,SSE,149,3.5,3.5,66,0.00,CLR,,0.00,WeatherDisplay:10.37,2013-05-19 10:21:00,
2013-05-19 11:26:00,60.5,49.1,29.88,ESE,113,2.3,2.3,66,0.00,CLR,,0.00,WeatherDisplay:10.37,2013-05-19 10:26:00,
2013-05-19 11:31:00,60.7,48.4,29.88,SSE,163,3.5,3.5,64,0.00,CLR,,0.00,WeatherDisplay:10.37,2013-05-19 10:31:00,
2013-05-19 11:36:00,60.7,49.3,29.88,SW,233,1.1,1.1,66,0.00,CLR,,0.00,WeatherDisplay:10.37,2013-05-19 10:36:00,
2013-05-19 11:41:00,60.9,49.1,29.88,WNW,293,1.1,1.1,65,0.00,CLR,,0.00,WeatherDisplay:10.37,2013-05-19 10:41:00,
2013-05-19 11:46:00,60.9,49.5,29.88,East,92,0.0,0.0,66,0.00,CLR,,0.00,WeatherDisplay:10.37,2013-05-19 10:46:00,
2013-05-19 11:51:00,61.4,49.5,29.88,SE,134,0.0,0.0,65,0.00,CLR,,0.00,WeatherDisplay:10.37,2013-05-19 10:51:00,
2013-05-19 11:56:00,61.7,48.5,29.88,ENE,75,2.3,2.3,62,0.00,CLR,,0.00,WeatherDisplay:10.37,2013-05-19 10:56:00,
2013-05-19 12:01:00,61.5,48.4,29.88,WNW,300,3.5,3.5,62,0.00,CLR,,0.00,WeatherDisplay:10.37,2013-05-19 11:01:00,
2013-05-19 12:06:00,61.6,48.9,29.88,NW,310,1.0,1.0,63,0.00,CLR,,0.00,WeatherDisplay:10.37,2013-05-19 11:06:00,
2013-05-19 12:11:00,61.7,49.0,29.88,West,278,0.0,0.0,63,0.00,CLR,,0.00,WeatherDisplay:10.37,2013-05-19 11:11:00,
2013-05-19 12:16:00,61.4,48.7,29.88,NE,41,2.3,2.3,63,0.00,CLR,,0.00,WeatherDisplay:10.37,2013-05-19 11:16:00,
2013-05-19 12:21:00,61.4,48.7,29.88,East,84,2.0,2.0,63,0.00,CLR,,0.00,WeatherDisplay:10.37,2013-05-19 11:21:00,
2013-05-19 12:26:00,61.4,48.7,29.88,NNE,15,0.0,0.0,63,0.00,CLR,,0.00,WeatherDisplay:10.37,2013-05-19 11:26:00,
2013-05-19 12:31:00,61.8,49.9,29.88,NNE,30,0.0,0.0,65,0.00,CLR,,0.00,WeatherDisplay:10.37,2013-05-19 11:31:00,
2013-05-19 12:36:00,62.4,49.2,29.88,WNW,284,1.1,1.1,62,0.00,CLR,,0.00,WeatherDisplay:10.37,2013-05-19 11:36:00,
2013-05-19 12:41:00,62.5,48.4,29.88,WNW,285,3.0,3.0,60,0.00,CLR,,0.00,WeatherDisplay:10.37,2013-05-19 11:41:00,
2013-05-19 12:46:00,62.2,48.6,29.88,NNW,347,2.0,2.0,61,0.00,CLR,,0.00,WeatherDisplay:10.37,2013-05-19 11:46:00,
2013-05-19 12:51:00,62.6,49.0,29.88,NE,48,1.1,1.1,61,0.00,CLR,,0.00,WeatherDisplay:10.37,2013-05-19 11:51:00,
2013-05-19 12:56:00,63.2,50.4,29.88,WNW,287,1.1,1.1,63,0.00,CLR,,0.00,WeatherDisplay:10.37,2013-05-19 11:56:00,
2013-05-19 13:01:00,64.4,50.2,29.88,NW,304,2.3,2.3,60,0.00,CLR,,0.00,WeatherDisplay:10.37,2013-05-19 12:01:00,
2013-05-19 13:06:00,65.4,49.8,29.87,West,260,3.5,3.5,57,0.00,CLR,,0.00,WeatherDisplay:10.37,2013-05-19 12:06:00,
2013-05-19 13:11:00,66.0,49.8,29.87,SSE,148,2.3,2.3,56,0.00,CLR,,0.00,WeatherDisplay:10.37,2013-05-19 12:11:00,
2013-05-19 13:16:00,66.7,50.0,29.87,NE,44,1.1,1.1,55,0.00,CLR,,0.00,WeatherDisplay:10.37,2013-05-19 12:16:00,
2013-05-19 13:21:00,67.3,51.1,29.87,WNW,298,1.1,1.1,56,0.00,CLR,,0.00,WeatherDisplay:10.37,2013-05-19 12:21:00,
2013-05-19 13:26:00,67.3,50.6,29.88,NE,48,1.1,1.1,55,0.00,CLR,,0.00,WeatherDisplay:10.37,2013-05-19 12:26:00,
2013-05-19 13:31:00,68.2,51.4,29.88,NNE,26,1.1,1.1,55,0.00,CLR,,0.00,WeatherDisplay:10.37,2013-05-19 12:31:00,
2013-05-19 13:36:00,68.7,49.3,29.88,WSW,246,6.9,6.9,50,0.00,CLR,,0.00,WeatherDisplay:10.37,2013-05-19 12:36:00,
2013-05-19 13:41:00,68.0,49.7,29.88,NNW,328,2.3,2.3,52,0.00,CLR,,0.00,WeatherDisplay:10.37,2013-05-19 12:41:00,
2013-05-19 13:46:00,67.2,51.0,29.88,ENE,62,2.3,2.3,56,0.00,CLR,,0.00,WeatherDisplay:10.37,2013-05-19 12:46:00,
2013-05-19 13:51:00,66.8,49.1,29.88,NW,326,3.5,3.5,53,0.00,CLR,,0.00,WeatherDisplay:10.37,2013-05-19 12:51:00,
2013-05-19 13:56:00,66.1,50.4,29.88,West,277,3.5,3.5,57,0.00,CLR,,0.00,WeatherDisplay:10.37,2013-05-19 12:56:00,
2013-05-19 14:01:00,65.8,49.7,29.88,ENE,75,2.3,2.3,56,0.00,CLR,,0.00,WeatherDisplay:10.37,2013-05-19 13:01:00,
2013-05-19 14:06:00,65.7,50.0,29.88,East,80,3.5,3.5,57,0.00,CLR,,0.00,WeatherDisplay:10.37,2013-05-19 13:06:00,
2013-05-19 14:11:00,66.0,51.3,29.88,NNE,26,2.3,2.3,59,0.00,CLR,,0.00,WeatherDisplay:10.37,2013-05-19 13:11:00,
2013-05-19 14:16:00,66.2,49.6,29.88,NW,326,3.5,3.5,55,0.00,CLR,,0.00,WeatherDisplay:10.37,2013-05-19 13:16:00,
2013-05-19 14:21:00,65.9,50.7,29.88,NE,34,1.1,1.1,58,0.00,CLR,,0.00,WeatherDisplay:10.37,2013-05-19 13:21:00,
2013-05-19 14:26:00,65.6,50.4,29.88,NW,304,2.3,2.3,58,0.00,CLR,,0.00,WeatherDisplay:10.37,2013-05-19 13:26:00,
2013-05-19 14:31:00,64.5,49.8,29.88,ENE,64,3.5,3.5,59,0.00,CLR,,0.00,WeatherDisplay:10.37,2013-05-19 13:31:00,
2013-05-19 14:36:00,64.1,49.5,29.88,East,91,3.5,3.5,59,0.00,CLR,,0.00,WeatherDisplay:10.37,2013-05-19 13:36:00,
2013-05-19 14:41:00,64.2,50.0,29.88,West,277,1.1,1.1,60,0.00,CLR,,0.00,WeatherDisplay:10.37,2013-05-19 13:41:00,
2013-05-19 14:46:00,64.6,49.5,29.88,WNW,299,3.5,3.5,58,0.00,CLR,,0.00,WeatherDisplay:10.37,2013-05-19 13:46:00,
2013-05-19 14:51:00,64.6,49.5,29.88,ESE,113,5.0,5.0,58,0.00,CLR,,0.00,WeatherDisplay:10.37,2013-05-19 13:51:00,
2013-05-19 14:56:00,64.7,49.6,29.88,NNW,345,4.6,4.6,58,0.00,CLR,,0.00,WeatherDisplay:10.37,2013-05-19 13:56:00,
2013-05-19 15:01:00,64.7,49.6,29.88,SSW,197,1.1,1.1,58,0.00,CLR,,0.00,WeatherDisplay:10.37,2013-05-19 14:01:00,
2013-05-19 15:06:00,64.8,49.7,29.87,North,349,3.5,3.5,58,0.00,CLR,,0.00,WeatherDisplay:10.37,2013-05-19 14:06:00,
2013-05-19 15:11:00,65.0,49.4,29.87,ENE,64,2.3,2.3,57,0.00,CLR,,0.00,WeatherDisplay:10.37,2013-05-19 14:11:00,
2013-05-19 15:16:00,65.0,49.9,29.87,NNE,12,1.1,1.1,58,0.00,CLR,,0.00,WeatherDisplay:10.37,2013-05-19 14:16:00,
2013-05-19 15:21:00,64.8,49.2,29.87,NW,318,4.6,4.6,57,0.00,CLR,,0.00,WeatherDisplay:10.37,2013-05-19 14:21:00,
2013-05-19 15:26:00,64.7,49.6,29.87,NW,316,3.5,3.5,58,0.00,CLR,,0.00,WeatherDisplay:10.37,2013-05-19 14:26:00,
2013-05-19 15:31:00,65.0,49.9,29.87,NNW,346,1.1,1.1,58,0.00,CLR,,0.00,WeatherDisplay:10.37,2013-05-19 14:31:00,
2013-05-19 15:36:00,65.1,49.5,29.86,NW,323,3.5,3.5,57,0.00,CLR,,0.00,WeatherDisplay:10.37,2013-05-19 14:36:00,
2013-05-19 15:41:00,64.7,49.6,29.86,WNW,302,2.3,2.3,58,0.00,CLR,,0.00,WeatherDisplay:10.37,2013-05-19 14:41:00,
2013-05-19 15:46:00,64.8,50.1,29.86,SE,130,1.1,1.1,59,0.00,CLR,,0.00,WeatherDisplay:10.37,2013-05-19 14:46:00,
2013-05-19 15:51:00,65.0,49.9,29.86,NNW,331,2.3,2.3,58,0.00,CLR,,0.00,WeatherDisplay:10.37,2013-05-19 14:51:00,
2013-05-19 15:56:00,65.2,50.0,29.86,NW,319,2.3,2.3,58,0.00,CLR,,0.00,WeatherDisplay:10.37,2013-05-19 14:56:00,
2013-05-19 16:01:00,65.1,50.4,29.86,WSW,243,3.5,3.5,59,0.00,CLR,,0.00,WeatherDisplay:10.37,2013-05-19 15:01:00,
2013-05-19 16:06:00,65.1,50.4,29.86,WNW,283,1.1,1.1,59,0.00,CLR,,0.00,WeatherDisplay:10.37,2013-05-19 15:06:00,
2013-05-19 16:11:00,65.3,50.1,29.86,NE,53,1.0,1.0,58,0.00,CLR,,0.00,WeatherDisplay:10.37,2013-05-19 15:11:00,
2013-05-19 16:16:00,65.8,51.1,29.85,East,79,2.3,2.3,59,0.00,CLR,,0.00,WeatherDisplay:10.37,2013-05-19 15:16:00,
2013-05-19 16:21:00,66.4,51.2,29.85,ENE,69,1.1,1.1,58,0.00,CLR,,0.00,WeatherDisplay:10.37,2013-05-19 15:21:00,
2013-05-19 16:26:00,66.7,50.5,29.85,WSW,240,2.3,2.3,56,0.00,CLR,,0.00,WeatherDisplay:10.37,2013-05-19 15:26:00,
2013-05-19 16:31:00,66.6,51.8,29.86,NW,321,1.1,1.1,59,0.00,CLR,,0.00,WeatherDisplay:10.37,2013-05-19 15:31:00,
2013-05-19 16:36:00,66.6,50.9,29.85,ENE,63,2.3,2.3,57,0.00,CLR,,0.00,WeatherDisplay:10.37,2013-05-19 15:36:00,
2013-05-19 16:41:00,66.0,50.3,29.86,NE,41,3.5,3.5,57,0.00,CLR,,0.00,WeatherDisplay:10.37,2013-05-19 15:41:00,
2013-05-19 16:46:00,66.1,50.9,29.86,SW,215,1.1,1.1,58,0.00,CLR,,0.00,WeatherDisplay:10.37,2013-05-19 15:46:00,
2013-05-19 16:51:00,66.3,50.6,29.86,West,281,3.5,3.5,57,0.00,CLR,,0.00,WeatherDisplay:10.37,2013-05-19 15:51:00,
2013-05-19 16:56:00,66.3,51.1,29.86,ENE,60,3.0,3.0,58,0.00,CLR,,0.00,WeatherDisplay:10.37,2013-05-19 15:56:00,
2013-05-19 17:01:00,66.4,51.2,29.86,NW,304,2.3,2.3,58,0.00,CLR,,0.00,WeatherDisplay:10.37,2013-05-19 16:01:00,
2013-05-19 17:06:00,66.7,51.0,29.86,NW,318,2.3,2.3,57,0.00,CLR,,0.00,WeatherDisplay:10.37,2013-05-19 16:06:00,
2013-05-19 17:11:00,66.9,51.2,29.86,SW,214,1.1,0.0,57,0.00,CLR,,0.00,WeatherDisplay:10.37,2013-05-19 16:11:00,
2013-05-19 17:16:00,66.6,51.4,29.86,ENE,74,2.3,2.3,58,0.00,CLR,,0.00,WeatherDisplay:10.37,2013-05-19 16:16:00,
2013-05-19 17:21:00,66.2,50.0,29.86,North,353,3.5,3.5,56,0.00,CLR,,0.00,WeatherDisplay:10.37,2013-05-19 16:21:00,
2013-05-19 17:26:00,65.8,50.1,29.86,NE,35,0.0,0.0,57,0.00,CLR,,0.00,WeatherDisplay:10.37,2013-05-19 16:26:00,
2013-05-19 17:31:00,65.6,50.0,29.86,WSW,256,2.3,2.3,57,0.00,CLR,,0.00,WeatherDisplay:10.37,2013-05-19 16:31:00,
2013-05-19 17:36:00,65.5,50.3,29.86,ESE,110,2.3,2.3,58,0.00,CLR,,0.00,WeatherDisplay:10.37,2013-05-19 16:36:00,
2013-05-19 17:41:00,65.3,50.1,29.86,NNE,12,2.3,2.3,58,0.00,CLR,,0.00,WeatherDisplay:10.37,2013-05-19 16:41:00,
2013-05-19 17:46:00,65.0,49.9,29.86,NNW,342,1.1,1.5,58,0.00,CLR,,0.00,WeatherDisplay:10.37,2013-05-19 16:46:00,
2013-05-19 17:51:00,64.7,50.0,29.86,WNW,294,2.3,2.3,59,0.00,CLR,,0.00,WeatherDisplay:10.37,2013-05-19 16:51:00,
2013-05-19 17:56:00,64.5,49.8,29.86,ENE,63,3.5,3.5,59,0.00,CLR,,0.00,WeatherDisplay:10.37,2013-05-19 16:56:00,
2013-05-19 18:01:00,64.3,50.1,29.86,NNE,26,3.5,3.5,60,0.00,CLR,,0.00,WeatherDisplay:10.37,2013-05-19 17:01:00,
2013-05-19 18:06:00,64.1,49.9,29.86,NNW,347,2.3,2.5,60,0.00,CLR,,0.00,WeatherDisplay:10.37,2013-05-19 17:06:00,
2013-05-19 18:11:00,64.0,49.4,29.86,NW,304,2.3,2.3,59,0.00,CLR,,0.00,WeatherDisplay:10.37,2013-05-19 17:11:00,
2013-05-19 18:16:00,64.2,50.0,29.86,North,4,1.1,0.0,60,0.00,CLR,,0.00,WeatherDisplay:10.37,2013-05-19 17:16:00,
2013-05-19 18:21:00,64.2,49.6,29.86,NNE,19,1.1,1.1,59,0.00,CLR,,0.00,WeatherDisplay:10.37,2013-05-19 17:21:00,
2013-05-19 18:26:00,64.1,49.9,29.86,NNE,15,1.1,1.1,60,0.00,CLR,,0.00,WeatherDisplay:10.37,2013-05-19 17:26:00,
2013-05-19 18:31:00,64.1,49.5,29.86,East,101,3.5,3.5,59,0.00,CLR,,0.00,WeatherDisplay:10.37,2013-05-19 17:31:00,
2013-05-19 18:36:00,64.0,49.8,29.87,NW,323,2.0,2.0,60,0.00,CLR,,0.00,WeatherDisplay:10.37,2013-05-19 17:36:00,
2013-05-19 18:41:00,64.2,49.6,29.87,ENE,58,3.5,0.0,59,0.00,CLR,,0.00,WeatherDisplay:10.37,2013-05-19 17:41:00,
2013-05-19 18:46:00,64.5,49.8,29.87,NNE,23,3.0,3.0,59,0.00,CLR,,0.00,WeatherDisplay:10.37,2013-05-19 17:46:00,
2013-05-19 18:51:00,64.2,49.6,29.87,ESE,103,2.3,2.3,59,0.00,CLR,,0.00,WeatherDisplay:10.37,2013-05-19 17:51:00,
2013-05-19 18:56:00,63.9,49.3,29.87,ESE,107,2.3,2.3,59,0.00,CLR,,0.00,WeatherDisplay:10.37,2013-05-19 17:56:00,
2013-05-19 19:01:00,63.7,49.1,29.87,ESE,103,2.3,2.3,59,0.00,CLR,,0.00,WeatherDisplay:10.37,2013-05-19 18:01:00,
2013-05-19 19:06:00,63.5,49.8,29.87,SSE,167,1.1,1.1,61,0.00,CLR,,0.00,WeatherDisplay:10.37,2013-05-19 18:06:00,
2013-05-19 19:11:00,63.4,49.7,29.87,SSE,160,2.3,2.3,61,0.00,CLR,,0.00,WeatherDisplay:10.37,2013-05-19 18:11:00,
2013-05-19 19:16:00,63.3,49.2,29.87,ENE,70,1.1,1.1,60,0.00,CLR,,0.00,WeatherDisplay:10.37,2013-05-19 18:16:00,
2013-05-19 19:21:00,63.6,49.9,29.86,NE,53,2.3,2.3,61,0.00,CLR,,0.00,WeatherDisplay:10.37,2013-05-19 18:21:00,
2013-05-19 19:26:00,64.6,50.4,29.86,NE,41,2.3,2.3,60,0.00,CLR,,0.00,WeatherDisplay:10.37,2013-05-19 18:26:00,
2013-05-19 19:31:00,65.3,50.6,29.86,NW,308,0.0,0.6,59,0.00,CLR,,0.00,WeatherDisplay:10.37,2013-05-19 18:31:00,
2013-05-19 19:36:00,65.5,50.3,29.86,NW,312,2.3,2.3,58,0.00,CLR,,0.00,WeatherDisplay:10.37,2013-05-19 18:36:00,
2013-05-19 19:41:00,65.2,50.5,29.86,NNW,347,2.3,2.3,59,0.00,CLR,,0.00,WeatherDisplay:10.37,2013-05-19 18:41:00,
2013-05-19 19:46:00,65.1,50.0,29.87,North,6,1.1,1.1,58,0.00,CLR,,0.00,WeatherDisplay:10.37,2013-05-19 18:46:00,
2013-05-19 19:51:00,65.0,49.9,29.87,NW,314,3.5,3.5,58,0.00,CLR,,0.00,WeatherDisplay:10.37,2013-05-19 18:51:00,
2013-05-19 19:56:00,64.8,50.1,29.87,ENE,57,0.0,0.3,59,0.00,CLR,,0.00,WeatherDisplay:10.37,2013-05-19 18:56:00,
2013-05-19 20:01:00,64.4,50.2,29.87,NNE,23,0.0,0.0,60,0.00,CLR,,0.00,WeatherDisplay:10.37,2013-05-19 19:01:00,
2013-05-19 20:06:00,63.9,50.2,29.87,WSW,239,1.1,1.2,61,0.00,CLR,,0.00,WeatherDisplay:10.37,2013-05-19 19:06:00,
2013-05-19 20:11:00,63.4,49.7,29.87,NW,323,2.3,2.3,61,0.00,CLR,,0.00,WeatherDisplay:10.37,2013-05-19 19:11:00,
2013-05-19 20:16:00,63.0,49.8,29.87,NNE,26,3.5,3.5,62,0.00,CLR,,0.00,WeatherDisplay:10.37,2013-05-19 19:16:00,
2013-05-19 20:21:00,62.5,49.7,29.88,NW,308,1.1,1.1,63,0.00,CLR,,0.00,WeatherDisplay:10.37,2013-05-19 19:21:00,
2013-05-19 20:26:00,62.0,49.7,29.88,NW,325,1.1,0.0,64,0.00,CLR,,0.00,WeatherDisplay:10.37,2013-05-19 19:26:00,
2013-05-19 20:31:00,61.5,49.6,29.88,NW,325,1.1,0.0,65,0.00,CLR,,0.00,WeatherDisplay:10.37,2013-05-19 19:31:00,
2013-05-19 20:36:00,61.0,50.0,29.88,NNW,330,0.0,0.0,67,0.00,CLR,,0.00,WeatherDisplay:10.37,2013-05-19 19:36:00,
2013-05-19 20:41:00,60.6,50.0,29.88,NW,311,1.1,1.1,68,0.00,CLR,,0.00,WeatherDisplay:10.37,2013-05-19 19:41:00,
2013-05-19 20:46:00,60.2,49.6,29.88,NW,311,0.0,0.0,68,0.00,CLR,,0.00,WeatherDisplay:10.37,2013-05-19 19:46:00,
2013-05-19 20:51:00,59.7,49.5,29.88,NW,310,0.0,0.0,69,0.00,CLR,,0.00,WeatherDisplay:10.37,2013-05-19 19:51:00,
2013-05-19 20:56:00,59.1,49.3,29.88,NW,311,0.0,0.0,70,0.00,CLR,,0.00,WeatherDisplay:10.37,2013-05-19 19:56:00,
2013-05-19 21:01:00,58.6,49.2,29.88,NW,310,0.0,0.0,71,0.00,CLR,,0.00,WeatherDisplay:10.37,2013-05-19 20:01:00,
2013-05-19 21:06:00,58.0,49.4,29.89,NW,311,0.0,0.0,73,0.00,CLR,,0.00,WeatherDisplay:10.37,2013-05-19 20:06:00,
2013-05-19 21:11:00,57.4,48.8,29.88,NW,310,0.0,0.0,73,0.00,CLR,,0.00,WeatherDisplay:10.37,2013-05-19 20:11:00,
2013-05-19 21:16:00,56.8,49.0,29.89,NW,310,0.0,0.0,75,0.00,CLR,,0.00,WeatherDisplay:10.37,2013-05-19 20:16:00,
2013-05-19 21:21:00,56.3,48.5,29.89,NW,311,0.0,0.0,75,0.00,CLR,,0.00,WeatherDisplay:10.37,2013-05-19 20:21:00,
2013-05-19 21:26:00,55.8,48.7,29.89,NW,310,0.0,0.0,77,0.00,CLR,,0.00,WeatherDisplay:10.37,2013-05-19 20:26:00,
2013-05-19 21:31:00,55.4,49.0,29.89,NW,310,0.0,0.0,79,0.00,CLR,,0.00,WeatherDisplay:10.37,2013-05-19 20:31:00,
2013-05-19 21:36:00,55.0,48.9,29.89,NW,310,0.0,0.0,80,0.00,CLR,,0.00,WeatherDisplay:10.37,2013-05-19 20:36:00,
2013-05-19 21:41:00,54.5,48.8,29.88,NW,311,0.0,0.0,81,0.00,CLR,,0.00,WeatherDisplay:10.37,2013-05-19 20:41:00,
2013-05-19 21:46:00,54.1,48.7,29.89,NW,310,0.0,0.0,82,0.00,CLR,,0.00,WeatherDisplay:10.37,2013-05-19 20:46:00,
2013-05-19 21:51:00,53.8,48.8,29.88,NW,311,0.0,0.0,83,0.00,CLR,,0.00,WeatherDisplay:10.37,2013-05-19 20:51:00,
2013-05-19 21:56:00,53.5,48.8,29.88,NW,311,0.0,0.0,84,0.00,CLR,,0.00,WeatherDisplay:10.37,2013-05-19 20:56:00,
2013-05-19 22:01:00,53.3,48.9,29.89,NW,310,0.0,0.0,85,0.00,CLR,,0.00,WeatherDisplay:10.37,2013-05-19 21:01:00,
2013-05-19 22:06:00,53.1,48.7,29.88,NW,310,0.0,0.0,85,0.00,CLR,,0.00,WeatherDisplay:10.37,2013-05-19 21:06:00,
2013-05-19 22:11:00,53.0,48.9,29.89,NW,310,0.0,0.0,86,0.00,CLR,,0.00,WeatherDisplay:10.37,2013-05-19 21:11:00,
2013-05-19 22:16:00,53.0,48.9,29.89,NW,310,0.0,0.0,86,0.00,CLR,,0.00,WeatherDisplay:10.37,2013-05-19 21:16:00,
2013-05-19 22:21:00,53.2,49.4,29.89,NW,311,0.0,0.0,87,0.00,CLR,,0.00,WeatherDisplay:10.37,2013-05-19 21:21:00,
2013-05-19 22:26:00,53.4,49.6,29.89,NW,310,0.0,0.0,87,0.00,CLR,,0.00,WeatherDisplay:10.37,2013-05-19 21:26:00,
2013-05-19 22:31:00,53.4,49.6,29.89,NW,310,0.0,0.0,87,0.00,CLR,,0.00,WeatherDisplay:10.37,2013-05-19 21:31:00,
2013-05-19 22:36:00,53.4,49.6,29.89,NW,310,0.0,0.0,87,0.00,CLR,,0.00,WeatherDisplay:10.37,2013-05-19 21:36:00,
2013-05-19 22:41:00,53.6,49.8,29.89,NW,310,0.0,0.0,87,0.00,CLR,,0.00,WeatherDisplay:10.37,2013-05-19 21:41:00,
2013-05-19 22:46:00,53.7,49.9,29.89,NW,310,0.0,0.0,87,0.00,CLR,,0.00,WeatherDisplay:10.37,2013-05-19 21:46:00,
2013-05-19 22:51:00,53.7,49.6,29.89,NW,310,0.0,0.0,86,0.00,CLR,,0.00,WeatherDisplay:10.37,2013-05-19 21:51:00,
2013-05-19 22:56:00,53.6,49.5,29.89,NW,311,0.0,0.0,86,0.00,CLR,,0.00,WeatherDisplay:10.37,2013-05-19 21:56:00,
2013-05-19 23:01:00,53.5,49.7,29.89,NW,310,0.0,0.0,87,0.00,CLR,,0.00,WeatherDisplay:10.37,2013-05-19 22:01:00,
2013-05-19 23:06:00,53.4,49.6,29.88,NW,311,0.0,0.0,87,0.00,CLR,,0.00,WeatherDisplay:10.37,2013-05-19 22:06:00,
2013-05-19 23:11:00,53.3,49.5,29.88,NW,310,0.0,0.0,87,0.00,CLR,,0.00,WeatherDisplay:10.37,2013-05-19 22:11:00,
2013-05-19 23:16:00,53.2,49.4,29.89,NW,311,0.0,0.0,87,0.00,CLR,,0.00,WeatherDisplay:10.37,2013-05-19 22:16:00,
2013-05-19 23:21:00,53.2,49.7,29.89,NW,311,0.0,0.0,88,0.00,CLR,,0.00,WeatherDisplay:10.37,2013-05-19 22:21:00,
2013-05-19 23:26:00,53.2,49.7,29.89,NW,311,0.0,0.0,88,0.00,CLR,,0.00,WeatherDisplay:10.37,2013-05-19 22:26:00,
2013-05-19 23:31:00,53.2,49.7,29.89,NW,311,0.0,0.0,88,0.00,CLR,,0.00,WeatherDisplay:10.37,2013-05-19 22:31:00,
2013-05-19 23:36:00,53.1,49.6,29.89,NW,310,0.0,0.0,88,0.00,CLR,,0.00,WeatherDisplay:10.37,2013-05-19 22:36:00,
2013-05-19 23:41:00,53.0,49.5,29.89,NW,310,0.0,0.0,88,0.00,CLR,,0.00,WeatherDisplay:10.37,2013-05-19 22:41:00,
2013-05-19 23:46:00,52.8,49.3,29.89,NW,310,0.0,0.0,88,0.00,CLR,,0.00,WeatherDisplay:10.37,2013-05-19 22:46:00,
2013-05-19 23:51:00,52.7,49.2,29.89,NW,311,0.0,0.0,88,0.00,CLR,,0.00,WeatherDisplay:10.37,2013-05-19 22:51:00,
2013-05-19 23:56:00,52.8,49.6,29.89,NW,311,0.0,0.0,89,0.00,CLR,,0.00,WeatherDisplay:10.37,2013-05-19 22:56:00,